ECDAB TISX-TNCM

Flight info

Callsign ECDAB
Flight time 0h 17m
Altitude 23000
Route HMLTN9 COY R760 PJM
Aircraft LJ35/M-SGHRWXYL/S

Departure

Time 2026-05-07 16:12
Airport Henry E. Rohlsen Airport (TISX)

Arrival

Time 2026-05-07 16:29
Airport Princess Juliana International Airport (TNCM)
Time Latitude Longitude Altitude Speed Heading
2026-05-07 15:52 17.70040 -64.79270 35 ft 0 kts 171°
2026-05-07 16:05 17.70010 -64.79278 35 ft 4 kts 259°
2026-05-07 16:05 17.70015 -64.79314 35 ft 6 kts 285°
2026-05-07 16:05 17.70039 -64.79333 36 ft 5 kts 22°
2026-05-07 16:05 17.70083 -64.79331 36 ft 8 kts 332°
2026-05-07 16:06 17.70100 -64.79385 37 ft 9 kts 266°
2026-05-07 16:06 17.70092 -64.79463 38 ft 12 kts 265°
2026-05-07 16:06 17.70081 -64.79560 40 ft 14 kts 262°
2026-05-07 16:06 17.70071 -64.79672 42 ft 16 kts 264°
2026-05-07 16:07 17.70057 -64.79799 44 ft 19 kts 266°
2026-05-07 16:07 17.70044 -64.79943 46 ft 21 kts 265°
2026-05-07 16:07 17.70027 -64.80096 48 ft 20 kts 263°
2026-05-07 16:07 17.70011 -64.80251 51 ft 22 kts 263°
2026-05-07 16:08 17.69994 -64.80414 54 ft 20 kts 261°
2026-05-07 16:08 17.69978 -64.80561 57 ft 21 kts 264°
2026-05-07 16:08 17.69964 -64.80711 60 ft 20 kts 263°
2026-05-07 16:08 17.69954 -64.80815 62 ft 11 kts 263°
2026-05-07 16:09 17.69950 -64.80890 64 ft 6 kts 284°
2026-05-07 16:09 17.69970 -64.80913 62 ft 7 kts 338°
2026-05-07 16:09 17.69974 -64.80914 63 ft 0 kts 346°
2026-05-07 16:10 17.69979 -64.80915 65 ft 3 kts 349°
2026-05-07 16:10 17.70017 -64.80920 65 ft 7 kts 355°
2026-05-07 16:10 17.70078 -64.80919 65 ft 8 kts 28°
2026-05-07 16:11 17.70083 -64.80910 63 ft 0 kts 83°
2026-05-07 16:11 17.70085 -64.80895 64 ft 14 kts 84°
2026-05-07 16:11 17.70126 -64.80488 54 ft 101 kts 82°
2026-05-07 16:11 17.70232 -64.79496 297 ft 159 kts 83°
2026-05-07 16:12 17.70280 -64.78247 997 ft 189 kts 102°
2026-05-07 16:12 17.70062 -64.76741 1731 ft 224 kts 86°
2026-05-07 16:12 17.70573 -64.75239 2461 ft 215 kts 59°
2026-05-07 16:12 17.71421 -64.73912 3139 ft 236 kts 58°
2026-05-07 16:13 17.72348 -64.72324 3845 ft 268 kts 60°
2026-05-07 16:13 17.73255 -64.70539 4561 ft 281 kts 66°
2026-05-07 16:13 17.73761 -64.68665 5243 ft 257 kts 80°
2026-05-07 16:13 17.74063 -64.66895 5891 ft 238 kts 79°
2026-05-07 16:14 17.74404 -64.65124 6744 ft 262 kts 79°
2026-05-07 16:14 17.74787 -64.63176 7872 ft 280 kts 78°
2026-05-07 16:14 17.75197 -64.61161 9169 ft 293 kts 78°
2026-05-07 16:14 17.75614 -64.59032 10471 ft 303 kts 78°
2026-05-07 16:15 17.76038 -64.56837 11728 ft 311 kts 77°
2026-05-07 16:15 17.76474 -64.54596 13043 ft 316 kts 77°
2026-05-07 16:15 17.76918 -64.52323 14342 ft 319 kts 76°
2026-05-07 16:15 17.77365 -64.50028 15584 ft 322 kts 76°
2026-05-07 16:16 17.77814 -64.47719 16881 ft 324 kts 76°
2026-05-07 16:16 17.78266 -64.45395 18233 ft 324 kts 76°
2026-05-07 16:16 17.78717 -64.43074 19448 ft 324 kts 76°
2026-05-07 16:16 17.79168 -64.40754 20696 ft 323 kts 76°
2026-05-07 16:17 17.79613 -64.38457 21986 ft 319 kts 76°
2026-05-07 16:17 17.80052 -64.36196 23027 ft 328 kts 75°
2026-05-07 16:17 17.80538 -64.33727 23090 ft 364 kts 76°
2026-05-07 16:17 17.81069 -64.30995 23105 ft 398 kts 76°
2026-05-07 16:18 17.81636 -64.28041 23108 ft 427 kts 76°
2026-05-07 16:18 17.82242 -64.24892 23107 ft 451 kts 76°
2026-05-07 16:18 17.82879 -64.21600 23103 ft 469 kts 76°
2026-05-07 16:18 17.83537 -64.18197 23103 ft 483 kts 77°
2026-05-07 16:19 17.84209 -64.14705 23102 ft 492 kts 77°
2026-05-07 16:19 17.84889 -64.11164 23098 ft 497 kts 77°
2026-05-07 16:19 17.85569 -64.07635 23101 ft 499 kts 77°
2026-05-07 16:19 17.86257 -64.04059 23105 ft 500 kts 77°
2026-05-07 16:20 17.86943 -64.00482 23105 ft 500 kts 77°
2026-05-07 16:20 17.87632 -63.96880 22814 ft 504 kts 77°
2026-05-07 16:20 17.88326 -63.93260 22507 ft 506 kts 77°
2026-05-07 16:20 17.89023 -63.89635 22208 ft 506 kts 77°
2026-05-07 16:21 17.89717 -63.85997 21495 ft 511 kts 77°
2026-05-07 16:21 17.90417 -63.82327 20743 ft 513 kts 77°
2026-05-07 16:21 17.91121 -63.78648 20009 ft 514 kts 77°
2026-05-07 16:21 17.91872 -63.74981 19287 ft 513 kts 73°
2026-05-07 16:22 17.93055 -63.71450 18460 ft 514 kts 67°
2026-05-07 16:22 17.94379 -63.67952 17424 ft 516 kts 66°
2026-05-07 16:22 17.95746 -63.64465 16416 ft 516 kts 66°
2026-05-07 16:22 17.97137 -63.60986 15437 ft 517 kts 66°
2026-05-07 16:23 17.98541 -63.57506 14574 ft 517 kts 66°
2026-05-07 16:23 17.99439 -63.55289 14092 ft 516 kts 66°
2026-05-07 16:23 18.00762 -63.51595 13224 ft 518 kts 73°
2026-05-07 16:23 18.01477 -63.47878 12356 ft 518 kts 80°
2026-05-07 16:24 18.01896 -63.44259 11186 ft 470 kts 83°
2026-05-07 16:24 18.02168 -63.41038 10094 ft 428 kts 85°
2026-05-07 16:24 18.02389 -63.38033 8899 ft 398 kts 85°
2026-05-07 16:24 18.02589 -63.35221 7729 ft 372 kts 85°
2026-05-07 16:25 18.02762 -63.32837 6587 ft 292 kts 85°
2026-05-07 16:25 18.02911 -63.30873 5403 ft 252 kts 85°
2026-05-07 16:25 18.03042 -63.29164 4216 ft 220 kts 85°
2026-05-07 16:25 18.03138 -63.27585 3323 ft 214 kts 92°
2026-05-07 16:26 18.03061 -63.26288 3013 ft 200 kts 93°
2026-05-07 16:26 18.02963 -63.24843 2559 ft 199 kts 94°
2026-05-07 16:26 18.02862 -63.23423 2416 ft 191 kts 94°
2026-05-07 16:26 18.02774 -63.22084 2461 ft 180 kts 94°
2026-05-07 16:27 18.02726 -63.20775 2346 ft 179 kts 86°
2026-05-07 16:27 18.02887 -63.19474 2182 ft 175 kts 82°
2026-05-07 16:27 18.03049 -63.18280 1940 ft 156 kts 83°
2026-05-07 16:27 18.03202 -63.17178 1517 ft 152 kts 83°
2026-05-07 16:28 18.03345 -63.16096 1148 ft 146 kts 84°
2026-05-07 16:28 18.03481 -63.15056 817 ft 140 kts 82°
2026-05-07 16:28 18.03639 -63.14059 577 ft 138 kts 80°
2026-05-07 16:28 18.03780 -63.13092 328 ft 134 kts 81°
2026-05-07 16:29 18.03911 -63.12189 97 ft 128 kts 83°
2026-05-07 16:29 18.03997 -63.11565 23 ft 115 kts 83°
2026-05-07 16:29 18.04064 -63.11099 16 ft 104 kts 81°
2026-05-07 16:29 18.04127 -63.10637 16 ft 37 kts 86°
2026-05-07 16:30 18.04156 -63.10472 15 ft 18 kts 322°
2026-05-07 16:30 18.04136 -63.10605 16 ft 23 kts 254°
2026-05-07 16:30 18.04143 -63.10737 15 ft 14 kts 346°
2026-05-07 16:30 18.04195 -63.10766 15 ft 5 kts 198°
2026-05-07 16:31 18.04192 -63.10774 15 ft 1 kts 302°
2026-05-07 16:31 18.04193 -63.10776 15 ft 1 kts 350°
2026-05-07 16:31 18.04189 -63.10775 15 ft 0 kts 346°